CAPE
1086 1116 2213 1659 1399 1432 1366 2097 1958 1347 961 791 748 784 973 1122 1082 1244 1127 1249 1206 1389 1017 1046 1099 1167 1135 1208 1618 1554 1597 1759 1737 2212 2579 2565 2387 2262 2760 2283 2136 1329 2794
1102 1276 2333 2256 1532 1512 1519 1976 1795 1793 1382 1171 1050 1020 1151 1252 1164 965 1128 1189 1006 998 990 840 1080 1206 1336 1343 1176 1654 1413 1386 2015 2115 2448 2750 2567 1941 2049 2003 1888 2041 2375
955 1250 1542 2508 1980 1595 1643 1890 1809 1550 1387 1517 1541 1471 1367 1325 1291 1019 928 1053 981 931 1064 819 1042 1220 1061 1310 1089 1144 1381 1336 1264 2182 2319 1792 1875 2225 1528 2235 2766 2648 2501
783 1120 1212 2554 2364 1570 1571 1691 1886 1551 1032 1404 1550 1471 1314 1304 1303 1098 930 966 1080 1225 1294 1110 1060 1129 1463 1358 1168 1164 1183 1187 1202 1234 1404 1074 1483 2464 1553 1809 2547 2624 2571
723 779 1389 2294 2379 1554 1435 1430 1519 1488 1427 1377 1273 1234 1272 1253 1109 977 917 994 1076 1244 1153 1196 1080 1337 1474 1221 1230 1098 1057 1176 1403 1216 1529 1270 935 2221 1779 1454 1798 1849 1850
549 593 1507 2129 1605 1672 1493 1273 1195 1182 1175 1140 1107 1117 1074 1014 1069 1077 953 998 1040 1156 1003 965 1341 1540 1056 1065 1216 1043 976 1122 1194 1311 734 743 1174 1811 2146 2015 1568 1588 1596
421 1100 1033 2342 2110 1657 1588 1424 1371 1337 1253 1222 1196 1197 1162 1215 1301 1236 1072 992 1141 1058 873 1080 1022 1083 789 881 1108 1144 1092 1157 1227 1016 667 574 1501 2684 2184 1796 1815 1820 1868
325 674 694 1897 1884 1484 1471 1409 1355 1340 1292 1303 1302 1472 1274 1344 1322 1379 1098 994 921 1131 969 785 818 778 813 955 874 907 999 1149 850 785 590 731 1805 1915 1972 1694 1549 1667 2111
328 306 672 935 1409 1544 1402 1489 1506 1494 1432 1578 1676 1388 1322 1388 1292 1099 983 887 828 850 869 934 1093 1251 1442 1353 1436 1073 926 862 798 752 511 1001 1948 1674 1780 1865 1530 1846 2049
198 429 397 551 870 1003 1299 1459 1207 1287 1247 1369 1271 1460 1289 1507 1152 1598 1432 1566 1424 1317 1362 1423 596 786 784 1041 1239 1201 1234 1193 819 808 914 985 1854 1422 1309 1848 1725 1567 1543
147 308 381 1017 1319 1108 844 1387 1566 1492 1522 1410 1392 1449 1285 1012 1543 1693 1733 1362 1065 1251 1203 1359 1238 1128 959 1074 750 938 964 1020 1414 832 654 1783 1666 1031 1192 1566 1399 1727 1579
100 185 113 634 419 808 312 1591 1060 971 834 1075 1044 1716 807 949 1557 1246 2077 1909 1414 1292 1547 1799 1702 1533 1056 669 1067 920 775 875 572 306 1083 1505 798 853 1333 1940 1684 1776 1974
66 40 14 163 532 350 262 557 511 485 543 1166 1357 1167 873 1225 1065 625 1704 1814 1195 1143 891 1536 1926 1152 1382 967 1375 1403 928 641 507 436 1219 1826 1328 1104 1334 1544 1917 1912 1890
8 6 5 6 97 256 131 233 635 1021 552 876 1023 845 1812 1363 916 1081 750 594 1256 972 874 1450 1674 1167 1550 1741 1204 1953 904 413 377 445 995 1157 830 1430 1588 1601 2249 1564 1788
23 28 3 3 306 197 352 324 512 283 270 312 732 1237 1092 1136 966 1039 967 906 774 828 978 1803 1545 2001 1882 1628 1812 1643 1376 549 548 457 463 1189 587 626 1061 1585 1848 2152 2190
10 46 44 50 506 575 589 663 569 508 444 399 495 604 1120 961 917 883 1039 994 979 993 1079 1831 2104 2525 2076 1762 1790 1755 1681 829 480 553 480 995 1312 861 894 1127 1356 2353 2318
269 227 116 174 324 834 888 963 888 613 379 471 432 694 1265 1315 958 1654 893 961 1087 1133 1477 1732 1875 1824 1923 1613 1647 1567 1664 1285 631 648 755 504 1001 1226 1446 1270 2465 2590 2968
302 426 507 420 481 901 922 962 842 673 504 335 281 545 1181 1251 1585 1949 853 823 1154 1270 1499 1382 1365 1326 848 650 1394 1835 1716 1038 914 807 909 706 610 917 1354 1648 2717 2743 2990
272 456 718 723 570 868 1379 1081 999 1295 707 485 325 325 1490 1184 1167 1694 934 521 2039 1348 1345 1271 1241 1502 1007 782 620 1050 361 1266 1623 924 879 971 952 1023 1232 1466 2641 2841 2607
785 1073 1313 1280 1284 1267 1464 1686 1020 981 1040 950 573 262 395 693 1369 1591 1232 1323 1921 1586 1498 1422 2919 1488 1646 1354 633 372 1110 323 1112 1317 594 717 757 1140 929 1064 1570 1702 2880
934 1257 1564 1862 3450 2074 1505 1614 1630 979 1071 1130 884 768 1294 779 802 2514 942 1031 1619 2080 2719 3945 2708 2988 1365 1381 1352 1064 752 775 1051 410 760 593 883 514 566 754 1680 1313 1633
1072 1283 1735 2198 3119 2694 2093 1971 1953 1612 1098 1183 1321 1577 1269 1112 943 1169 1861 984 1620 1758 3427 3607 3943 2122 2136 1741 1133 863 987 207 116 954 178 790 494 630 635 822 1425 1520 1702
1371 1501 1913 3172 3421 3760 3674 2345 2279 2180 2192 1432 1439 1743 1733 2287 2103 2304 2502 1854 1985 2190 1112 3242 3377 3116 1549 1880 1770 1450 782 134 115 392 728 228 172 605 391 960 1380 1231 1627
1583 1604 1743 2859 3875 3735 4329 3427 4075 2639 2478 2076 1714 1807 1856 2898 3014 2647 2710 2667 3463 1518 1938 1559 2344 2948 2737 1496 1414 1977 2526 1367 680 629 417 65 32 796 1462 1103 1238 1327 1463
1210 1591 1856 3513 3618 4074 4398 4203 3551 3602 2551 2360 2352 3036 3546 3458 3606 3210 3750 4080 3711 3245 3260 3489 3653 3556 2594 2198 1311 1244 1395 1994 1936 835 468 208 722 811 414 526 765 757 1108
946 1231 1614 3456 4497 3985 3841 3742 4862 4682 4343 3419 3096 2839 2347 2394 2437 3748 3521 3167 2932 3547 3931 3950 4175 4144 3047 2140 2205 2044 2166 1695 1591 2101 1353 1053 560 590 387 109 5 1197 1053
CIN
-1 -15 0 0 0 -5 -9 -1 0 0 -17 -19 -18 -13 -1 0 0 -1 -3 -2 0 0 -10 -5 -11 -13 -14 -10 -3 -7 -10 -14 -27 -7 0 -1 -4 -10 -4 -12 -20 -1 0
-8 -5 0 0 0 -2 -6 0 -1 0 -4 -11 -11 -10 -6 -6 -1 -8 -9 -6 0 0 -1 -13 -5 -2 -2 0 -1 0 -7 -12 -2 -12 -1 0 0 -14 -14 -6 -11 -7 0
-4 -6 -3 0 0 -3 0 0 -1 -4 -3 -2 -2 -5 -6 -10 -8 -7 -8 -6 -5 -4 -3 -12 -6 -1 -3 0 -5 -1 0 -4 -13 -3 -10 -1 -13 -9 -20 -2 -4 0 0
-12 -14 -5 0 0 -1 -2 0 0 -2 -12 -4 -5 -5 -8 -7 -1 -2 -1 0 0 0 0 -2 -4 -4 0 0 0 0 0 -4 -16 -27 -29 -68 -10 -22 -18 -9 0 -2 -1
-6 -4 0 0 0 0 0 -1 0 -1 0 -1 0 0 -2 0 0 0 0 0 0 0 0 0 -6 -2 0 0 0 -1 -2 -9 -13 -30 -6 -6 -49 -17 -29 -16 -5 -6 -5
0 0 -23 0 0 0 0 0 -2 -4 -2 0 0 0 -3 0 0 0 0 0 0 0 -2 -2 0 0 -1 0 0 -5 -16 -25 -30 -11 -1 -4 -6 -3 -14 -1 0 -2 -6
0 0 -15 0 0 0 0 0 0 0 -1 -1 0 0 0 0 0 0 -1 -2 -1 -1 -1 0 -2 0 -9 -8 -2 -6 -11 -24 -9 -6 0 -1 -6 -9 -8 -5 0 -1 -2
-20 -1 -7 -1 0 0 0 0 0 0 0 0 0 0 0 0 0 -1 0 0 -1 -1 -1 -1 -2 -4 -8 -8 -13 -12 -15 -21 -3 -11 -4 -1 -41 -17 -11 -2 0 -1 -1
-38 -26 0 -1 -1 0 0 0 -1 0 0 0 -2 -2 -1 0 -1 -3 -4 -2 -3 -3 -3 -3 -1 0 0 0 0 -4 -16 -30 -25 -21 -1 -5 -64 -28 -7 0 -2 0 0
-66 -9 -3 0 0 0 0 -3 -1 0 0 0 0 0 0 -2 -7 0 -6 -4 0 0 -1 -2 -37 -25 -23 -18 -16 -19 -17 -26 -8 -66 -13 -77 -46 -34 -13 0 0 -1 -3
-77 -25 -12 -1 -4 -6 -2 -7 -1 -1 0 0 -1 -2 -10 0 -7 -3 -8 -17 -12 -6 -6 -5 -14 -9 -25 -34 -45 -41 -41 -1 -7 -1 -112 -66 -55 -41 -17 -1 -4 -2 -4
-81 -41 -63 0 -7 -1 -25 -27 0 0 0 0 0 0 -6 -2 -28 -13 -4 -25 -25 -23 -18 -15 -19 -19 -39 -41 -28 -47 -9 -27 -1 0 -52 -83 -77 -46 -12 0 -1 -1 0
-111 -124 -127 -18 -3 -7 -14 -8 -4 -11 -4 0 -3 0 0 -13 -1 0 -3 -3 -6 -33 -3 -20 -18 -51 -10 -16 -55 -9 -5 -2 0 -2 -78 -83 -59 -47 -9 0 0 0 0
0 0 0 0 -48 -14 -46 -29 -4 -1 -3 -1 -2 -5 0 -1 -1 -3 0 0 -4 0 0 -1 -22 -54 -5 -6 0 -2 -1 -2 0 -1 -69 -90 -92 -51 -29 -11 0 -1 0
-141 -144 0 -34 -36 -52 -19 -21 -3 -27 -19 -17 -2 0 -2 0 0 0 0 0 0 0 -1 -3 -1 -10 -25 -3 -7 -4 0 0 0 0 -1 -91 -121 -107 -64 -31 -5 0 0
-102 -135 -124 -141 -43 -22 -18 -6 -6 -7 -15 -11 -7 -9 -6 -1 -3 -2 -1 0 0 -1 0 -8 -43 -21 -10 -4 -21 -1 -1 -1 -1 0 -2 -21 -89 -107 -99 -69 -45 0 0
-63 -68 -99 -110 -93 -25 -17 -10 -5 -6 -27 -13 -24 -3 -2 -7 -12 -1 -2 0 0 0 0 0 0 -2 -12 -2 -5 0 0 0 0 0 0 -4 -35 -114 -92 -98 -14 -1 0
-50 -42 -42 -63 -60 -28 -28 -24 -15 -18 -15 -32 -50 -10 -3 -8 -2 0 -19 -2 -1 -1 0 0 0 0 0 0 -66 -6 0 0 -1 -3 -3 -2 -2 -1 -118 -105 -33 -4 0
-83 -57 -43 -46 -59 -25 -17 -27 -31 -9 -29 -37 -59 -51 -2 -10 -13 -3 -7 -12 0 0 -1 0 0 -1 -1 0 -1 -18 -160 -73 -8 -6 -2 0 0 -1 -6 -122 -69 -32 -6
-29 -26 -29 -28 -32 -27 -7 -21 -33 -30 -21 -13 -41 -96 -56 -25 -6 -3 -11 -3 0 0 0 0 -3 0 -1 -1 0 -9 -158 -315 -52 -3 0 0 0 0 0 -1 -57 -28 -1
-31 -33 -38 -34 0 -23 -45 -25 -26 -52 -35 -24 -42 -45 -4 -32 -19 0 -27 -8 0 0 0 -4 -13 -2 -1 -1 0 0 -1 -1 -8 0 0 -1 -5 -2 -1 0 -1 0 -67
-26 -42 -44 -52 -19 -40 -49 -52 -25 -26 -45 -38 -29 -12 -40 -39 -36 -10 0 -15 0 0 -3 -1 0 -2 -1 -1 -2 0 -1 -3 -2 -102 -297 -3 -15 -1 0 -3 0 0 -3
-27 -38 -43 -27 -32 -27 -22 -37 -36 -46 -30 -65 -56 -22 -17 -23 -29 -13 -1 -6 -2 0 0 -1 0 -1 0 0 -4 -3 0 0 -1 -8 -56 -77 -7 -16 -245 -7 -1 -6 0
-14 -30 -35 -39 -33 -38 -8 -32 0 -21 -21 -30 -59 -40 -46 -18 -12 -51 -21 -10 0 -5 -1 -1 0 0 -10 -1 0 0 0 -1 0 -1 -162 -13 -23 -13 -2 -4 -8 -7 0
-17 -12 -24 -31 -52 -47 -21 -30 -33 -22 -43 -27 -13 -4 -2 0 -1 -2 -1 0 -1 0 0 -1 0 -1 -2 -1 0 0 -56 -6 0 0 -1 -1 -28 -3 -28 -25 -71 -36 -7
-28 -24 -15 -28 -46 -70 -72 -56 -2 -1 0 -3 -1 0 -3 -7 -10 0 -1 -19 -22 -7 -1 0 0 0 -4 -6 0 -1 -4 -7 -3 0 0 0 0 -1 -157 -13 -1 -14 -18
Wind_Speed
10 10 8 8 7 5 7 10 13 14 14 14 15 13 12 10 9 9 7 5 4 7 13 12 13 14 14 14 12 12 11 10 10 8 6 6 6 7 9 9 15 3 3
17 12 9 9 8 5 6 10 11 11 14 14 15 14 13 12 11 9 9 6 5 6 8 14 13 13 11 13 13 11 12 13 12 12 11 10 8 11 11 11 20 7 5
11 9 10 9 9 6 6 8 9 10 13 12 12 14 15 13 11 11 11 12 12 10 9 11 12 12 12 12 12 12 13 15 17 20 28 28 14 12 10 7 6 10 8
10 9 10 10 9 7 5 6 8 10 11 11 9 10 13 12 12 12 13 14 14 14 12 12 12 14 13 11 11 12 11 14 17 25 34 22 14 16 11 8 5 6 6
12 13 5 9 9 8 6 6 6 8 9 10 9 9 11 13 14 14 15 14 15 15 14 13 13 14 14 12 10 10 11 14 20 23 28 27 15 16 12 11 10 10 13
12 10 9 8 9 7 6 6 6 6 8 9 10 10 11 13 14 15 17 15 15 14 13 13 10 12 13 12 10 9 11 15 18 22 15 17 15 12 9 10 10 9 11
10 9 10 9 8 7 7 7 7 7 10 11 12 12 14 13 14 15 14 15 13 11 11 10 10 9 9 9 10 9 11 18 16 20 11 13 2 5 8 9 7 7 6
10 8 8 7 7 6 5 7 8 8 11 12 13 13 14 12 12 11 12 9 10 7 8 10 10 10 9 10 11 12 11 17 20 15 12 11 2 6 7 9 7 6 4
9 11 9 9 6 4 5 6 6 7 10 11 11 8 10 9 9 8 7 7 6 5 6 6 9 12 13 9 12 12 13 15 21 9 10 4 6 2 7 10 9 7 7
7 11 13 7 6 5 3 4 5 6 7 8 8 10 9 10 10 9 9 9 4 3 2 3 6 11 12 8 8 11 16 19 19 9 5 1 4 3 6 9 9 9 8
8 10 12 11 6 6 11 4 3 5 5 8 9 8 8 12 9 10 8 8 4 3 5 9 15 16 18 15 3 9 15 15 12 11 5 9 6 3 5 7 8 7 7
9 8 11 13 9 3 6 8 3 5 6 8 9 9 8 8 2 7 10 9 6 5 8 12 14 18 27 8 4 10 9 13 6 11 5 10 6 3 6 7 6 5 6
nan nan nan 10 8 8 10 1 7 4 1 5 3 4 10 2 5 8 7 6 4 8 6 10 10 11 15 10 9 9 5 2 5 4 9 13 9 5 6 7 7 8 9
nan nan nan nan nan 7 4 1 5 6 4 3 7 6 3 2 3 4 4 2 6 3 2 2 3 7 7 4 6 5 6 5 6 1 10 13 10 8 9 9 9 9 9
nan nan nan nan 6 6 2 4 4 2 4 2 8 12 6 4 6 7 4 3 2 5 4 6 3 2 4 4 5 4 8 2 2 1 5 16 14 9 7 6 7 10 10
nan nan nan nan 11 8 7 3 5 0 6 4 4 9 12 6 8 6 8 8 7 4 3 7 15 7 6 3 5 3 2 2 5 9 5 8 15 10 9 7 8 9 10
12 12 11 11 13 11 10 10 7 6 7 7 7 7 14 13 11 9 11 12 12 13 10 9 7 4 8 9 11 6 3 5 6 6 5 3 12 11 10 11 7 9 9
10 11 11 12 14 15 13 11 9 10 6 9 9 10 14 12 11 16 12 14 14 14 18 15 11 9 12 14 16 8 12 8 9 11 10 7 6 7 13 11 13 11 8
11 12 12 12 12 15 15 14 15 14 11 9 10 10 15 14 13 14 14 15 16 17 18 17 17 16 15 13 13 18 27 18 12 15 13 12 9 10 13 21 19 18 16
17 15 17 15 11 11 13 14 14 15 16 15 14 14 17 18 19 16 16 16 17 18 18 20 23 20 20 18 17 24 28 5 13 18 18 15 12 14 11 15 19 16 15
17 19 20 22 15 12 15 14 15 15 15 15 16 18 17 19 21 24 18 19 19 17 18 22 25 27 22 19 15 19 23 21 19 24 20 24 21 15 15 13 18 15 20
19 20 22 20 19 17 14 13 12 14 15 15 14 17 21 21 23 21 24 23 22 22 23 21 22 21 22 23 24 23 23 22 23 35 32 14 22 23 17 19 20 22 22
21 20 20 21 19 19 17 16 15 14 12 15 17 15 21 22 27 27 26 30 24 26 23 27 26 25 22 24 25 29 29 22 25 32 41 38 25 22 26 14 30 26 26
18 19 18 20 21 21 22 19 16 17 16 18 19 18 23 25 28 30 29 30 29 30 28 27 27 26 33 28 28 31 28 27 25 30 41 nan nan 8 24 32 27 27 29
23 21 25 27 30 29 30 30 25 22 19 19 21 21 24 26 27 30 28 31 33 33 30 28 27 32 30 30 29 28 33 30 32 32 34 32 39 33 42 37 35 38 35
25 25 27 31 30 29 28 24 25 20 17 20 23 25 25 26 27 29 31 30 31 34 34 34 33 32 30 31 34 34 35 38 36 40 34 31 34 38 40 41 nan 31 43
Wind_Direction
20 18 46 57 49 40 36 47 41 47 41 52 58 62 66 56 51 49 54 30 48 50 54 60 91 101 102 99 106 116 103 87 96 96 68 63 85 94 79 63 49 339 19
353 13 42 50 42 33 17 60 48 48 46 54 65 63 71 68 65 79 89 85 61 39 69 73 78 95 101 101 97 101 104 95 79 74 58 34 40 62 71 92 84 337 13
344 355 46 63 45 39 37 65 62 54 52 60 69 71 72 74 76 82 89 92 70 63 95 82 82 85 91 94 96 98 90 94 92 78 65 45 13 41 61 79 343 358 5
354 7 37 53 40 25 56 81 70 61 64 71 77 78 78 80 83 84 84 85 75 76 83 80 80 91 92 90 86 79 80 78 83 89 91 64 47 19 41 42 23 4 352
3 32 356 45 34 42 76 77 73 66 77 81 86 96 91 84 83 82 86 87 86 82 84 83 76 84 92 94 90 83 76 67 65 73 80 106 230 347 15 27 32 32 37
11 17 347 34 30 46 70 71 63 69 69 79 81 86 91 85 87 83 87 89 91 87 85 82 79 81 77 90 95 95 91 90 86 78 72 75 141 289 350 32 46 26 25
3 329 12 28 35 40 55 62 73 77 76 82 81 86 90 89 91 93 95 98 96 90 90 100 88 66 65 82 87 101 106 103 104 103 100 97 11 359 4 40 39 37 20
2 337 358 23 39 48 54 68 80 87 83 82 76 77 91 94 93 94 93 96 97 100 107 103 76 70 70 93 92 89 100 108 101 115 85 104 358 44 8 46 59 49 45
359 340 7 25 44 56 79 81 86 92 86 79 83 80 84 80 91 88 97 81 89 94 76 107 66 67 69 83 102 93 95 96 101 94 97 77 355 32 76 57 48 47 52
13 5 355 39 35 64 356 67 85 83 78 80 78 86 73 77 58 52 55 40 39 69 70 280 110 55 40 64 88 83 95 94 98 109 90 168 315 10 73 83 74 67 52
36 25 19 1 115 106 149 349 30 68 81 79 67 55 64 69 21 5 308 316 344 42 50 33 55 50 30 32 72 89 90 93 95 101 252 307 305 2 55 67 80 77 72
26 25 56 356 353 57 87 270 53 1 42 40 38 7 47 76 250 252 313 328 335 21 54 50 60 53 54 351 217 102 105 92 104 123 253 300 299 11 56 54 50 54 65
nan nan nan 54 354 348 96 202 205 143 265 299 93 4 80 354 66 21 353 334 337 354 57 15 33 62 81 83 98 129 147 160 115 75 289 288 308 342 32 61 51 41 46
nan nan nan nan nan 55 313 187 276 109 284 298 323 336 38 75 342 109 17 3 286 287 227 338 343 17 66 45 124 157 102 155 149 245 279 300 319 334 2 15 21 34 44
nan nan nan nan 20 11 359 303 155 220 239 233 284 316 344 355 334 328 350 322 315 317 290 272 264 238 332 81 174 113 125 171 7 205 204 316 313 331 352 17 23 23 27
nan nan nan nan 347 8 348 342 317 298 286 305 281 307 324 317 307 309 309 315 309 291 253 267 256 254 242 209 334 249 135 183 186 173 221 309 331 336 4 15 42 26 21
326 336 343 353 344 354 351 341 343 330 325 311 313 305 311 316 310 305 308 305 305 301 270 244 236 255 244 245 215 272 238 287 209 261 212 252 306 332 347 359 1 19 14
354 343 350 354 351 352 358 357 1 346 335 313 315 309 319 320 315 307 299 296 295 288 292 289 281 264 234 228 264 236 279 239 263 263 261 253 281 283 316 333 331 340 358
16 347 7 2 10 0 5 10 9 9 356 358 352 342 333 340 341 325 312 308 296 294 287 281 284 275 259 255 252 267 250 187 294 282 266 260 265 250 263 314 321 329 340
2 20 18 20 17 359 3 15 28 31 29 21 9 359 349 338 341 332 324 310 301 301 294 294 283 271 257 252 239 256 280 298 189 258 274 275 269 283 268 273 286 293 322
27 23 32 27 29 27 14 15 9 13 11 7 4 358 347 337 333 325 327 327 313 297 295 282 283 297 296 282 271 248 249 273 294 279 276 266 254 263 263 264 273 267 293
33 27 21 29 20 17 12 4 5 358 0 356 355 350 347 349 342 336 328 324 321 309 313 301 288 283 289 293 287 277 261 248 249 259 255 278 284 266 270 275 270 274 268
24 19 13 4 5 2 6 354 354 354 348 338 345 340 345 332 346 339 335 324 321 313 311 306 300 297 289 293 289 281 273 268 264 260 266 264 226 236 259 255 279 272 272
12 4 3 355 355 355 352 353 353 343 343 340 340 325 329 334 342 336 337 330 323 318 317 311 304 299 300 292 287 293 285 276 268 262 263 nan nan 285 254 259 271 277 276
346 348 346 343 348 348 344 346 340 346 341 339 333 336 330 329 338 337 335 335 330 321 320 309 307 301 295 291 290 286 282 281 288 284 274 274 275 269 260 252 244 273 275
332 335 336 333 332 334 333 334 334 339 333 331 330 328 328 327 329 333 332 327 331 326 321 317 308 310 302 292 290 285 282 276 277 276 272 269 265 270 260 259 nan 257 268